DW7921 Weather Reports


time (UTC)temp
C
wind
direction
speed
KPH
gust
KPH
rain 1hr
cm
rain 24hr
cm
rain mn
cm
humidity
%
barometer
mb
20260504001606 27 352 0.0 0.0 0.00 0.00 0.00 40 1009.7
20260504000108 26 278 0.0 1.6 0.00 0.00 0.00 40 1009.8
20260503234549 26 309 0.0 0.0 0.00 0.00 0.00 39 1009.9
20260503233047 26 32 0.0 6.4 0.00 0.00 0.00 39 1010.1
20260503231544 27 14 0.0 0.0 0.00 0.00 0.00 40 1010.3
20260503230041 27 9 0.0 0.0 0.00 0.00 0.00 38 1010.5
20260503224539 26 9 0.0 6.4 0.00 0.00 0.00 40 1010.8
20260503223037 28 14 0.0 0.0 0.00 0.00 0.00 37 1010.8
20260503221534 27 19 0.0 1.6 0.00 0.00 0.00 39 1011.1
20260503220031 26 8 0.0 4.8 0.00 0.00 0.00 41 1011.2
20260503214529 26 9 0.0 0.0 0.00 0.00 0.00 40 1011.3
20260503213027 26 348 0.0 0.0 0.00 0.00 0.00 40 1011.4
20260503211524 26 19 0.0 0.0 0.00 0.00 0.00 41 1011.6
20260503210021 25 278 0.0 0.0 0.00 0.00 0.00 43 1011.8
20260503204526 25 21 0.0 1.6 0.00 0.00 0.00 46 1012.0
20260503203018 25 40 0.0 4.8 0.00 0.00 0.00 43 1012.2
20260503201515 24 27 0.0 8.0 0.00 0.00 0.00 46 1012.3
20260503200013 24 329 0.0 1.6 0.00 0.00 0.00 46 1012.4
20260503194509 23 51 0.0 0.0 0.00 0.00 0.00 50 1012.6
20260503193013 23 351 0.0 4.8 0.00 0.00 0.00 50 1012.9
20260503191504 23 75 0.0 0.0 0.00 0.00 0.00 51 1013.0
20260503190004 23 1 0.0 0.0 0.00 0.00 0.00 53 1013.2
20260503184503 22 56 0.0 0.0 0.00 0.00 0.00 53 1013.2
20260503183116 23 47 0.0 0.0 0.00 0.00 0.00 53 1013.6
20260503181619 22 43 0.0 0.0 0.00 0.00 0.00 55 1013.6
20260503180052 21 6 0.0 1.6 0.00 0.00 0.00 58 1013.6
20260503174549 21 51 0.0 0.0 0.00 0.00 0.00 60 1013.8
20260503173054 20 54 0.0 0.0 0.00 0.00 0.00 59 1013.8
20260503171546 20 65 0.0 0.0 0.00 0.00 0.00 59 1013.8
20260503081528 17 43 0.0 0.0 0.00 0.00 0.00 56 1014.5
20260503071522 17 326 0.0 0.0 0.00 0.00 0.00 53 1014.3
20260503054516 18 329 0.0 1.6 0.00 0.00 0.00 54 1014.0
20260503053016 17 41 0.0 0.0 0.00 0.00 0.00 56 1014.1
20260503051520 18 22 0.0 0.0 0.00 0.00 0.00 57 1014.0
20260503050020 18 51 0.0 0.0 0.00 0.00 0.00 57 1014.0
20260503044522 18 13 0.0 0.0 0.00 0.00 0.00 57 1014.0
20260503043013 18 27 0.0 0.0 0.00 0.00 0.00 57 1013.8
20260503041513 18 27 0.0 0.0 0.00 0.00 0.00 57 1013.7
20260503040019 18 25 0.0 0.0 0.00 0.00 0.00 58 1013.5
20260503034515 18 352 0.0 0.0 0.00 0.00 0.00 59 1013.4
20260503033014 19 8 0.0 0.0 0.00 0.00 0.00 59 1013.2
20260503031511 19 9 0.0 0.0 0.00 0.00 0.00 58 1013.1
20260503030010 20 21 0.0 0.0 0.00 0.00 0.00 57 1012.9
20260503024510 20 345 0.0 1.6 0.00 0.00 0.00 56 1012.8
20260503023009 21 350 0.0 0.0 0.00 0.00 0.00 55 1012.6
20260503021507 21 357 0.0 0.0 0.00 0.00 0.00 53 1012.7
20260503020006 22 30 0.0 0.0 0.00 0.00 0.00 50 1012.7
20260503014504 23 353 0.0 0.0 0.00 0.00 0.00 50 1012.8
20260503013003 22 11 0.0 1.6 0.00 0.00 0.00 52 1012.9
20260503011501 23 1 0.0 0.0 0.00 0.00 0.00 51 1012.9
20260503010122 23 4 0.0 0.0 0.00 0.00 0.00 50 1012.9
20260503004557 22 359 0.0 1.6 0.00 0.00 0.00 50 1013.0
20260503003100 22 16 0.0 3.2 0.00 0.00 0.00 50 1013.0